CW1767 Weather Reports


Display with metric or nautical units.
time (UTC)temp
F
wind
direction
speed
MPH
gust
MPH
rain 1hr
in
rain 24hr
in
rain mn
in
humidity
%
barometer
mb
20260510153000 78 153 0.0 2.0 0.00 0.00 0.00 51 1013.0
20260510151602 78 153 0.0 0.0 0.00 0.00 0.00 51 1013.1
20260510150054 76 153 0.0 1.0 0.00 0.00 0.00 51 1013.3
20260510144551 74 164 0.0 2.0 0.00 0.00 0.00 56 1013.2
20260510143045 73 204 0.0 0.0 0.00 0.00 0.00 60 1013.3
20260510141545 72 204 0.0 1.0 0.00 0.00 0.00 61 1013.2
20260510140140 71 212 0.0 1.0 0.00 0.00 0.00 64 1013.3
20260510134535 70 202 0.0 1.0 0.00 0.00 0.00 69 1013.5
20260510133038 68 202 0.0 2.0 0.00 0.00 0.00 72 1013.3
20260510131525 66 154 0.0 0.0 0.00 0.00 0.00 78 1013.1
20260510130022 64 154 0.0 0.0 0.00 0.00 0.00 84 1012.9
20260510124518 63 150 0.0 0.0 0.00 0.00 0.00 88 1012.7
20260510123015 61 149 0.0 0.0 0.00 0.00 0.00 90 1012.7
20260510121511 60 149 0.0 0.0 0.00 0.00 0.00 93 1012.6
20260510120008 59 149 0.0 0.0 0.00 0.00 0.00 94 1012.5
20260510114506 58 149 0.0 0.0 0.00 0.00 0.00 94 1012.5
20260510113005 57 149 0.0 0.0 0.00 0.00 0.00 94 1012.4
20260510111502 55 149 0.0 0.0 0.00 0.00 0.00 93 1012.1
20260510110059 55 149 0.0 0.0 0.00 0.00 0.00 93 1011.7
20260510104558 54 149 0.0 0.0 0.00 0.00 0.00 93 1011.5
20260510103100 54 149 0.0 0.0 0.00 0.00 0.00 92 1011.5
20260510101555 53 149 0.0 0.0 0.00 0.00 0.00 92 1011.2
20260510100054 53 149 0.0 0.0 0.00 0.00 0.00 92 1010.9
20260510094552 54 149 0.0 0.0 0.00 0.00 0.00 92 1010.9
20260510093049 54 149 0.0 0.0 0.00 0.00 0.00 91 1010.6
20260510091550 55 149 0.0 0.0 0.00 0.00 0.00 92 1010.4
20260510090046 55 149 0.0 0.0 0.00 0.00 0.00 92 1010.2
20260510084546 55 149 0.0 0.0 0.00 0.00 0.00 91 1010.2
20260510083047 56 149 0.0 0.0 0.00 0.00 0.00 92 1010.1
20260510081550 55 146 0.0 0.0 0.00 0.00 0.00 92 1009.9
20260510080044 55 146 0.0 0.0 0.00 0.00 0.00 91 1010.0
20260510074543 55 146 0.0 0.0 0.00 0.00 0.00 91 1010.0
20260510073101 55 146 0.0 0.0 0.00 0.00 0.00 91 1009.9
20260510071545 55 146 0.0 0.0 0.00 0.00 0.00 91 1009.9
20260510070043 55 146 0.0 0.0 0.00 0.00 0.00 91 1010.2
20260510064548 55 155 0.0 0.0 0.00 0.00 0.00 91 1010.0
20260510063042 55 155 0.0 0.0 0.00 0.00 0.00 91 1009.9
20260510061537 55 155 0.0 0.0 0.00 0.00 0.00 90 1010.0
20260510060036 56 155 0.0 0.0 0.00 0.00 0.00 90 1010.1
20260510054534 56 155 0.0 0.0 0.00 0.00 0.00 90 1010.2
20260510053036 56 155 0.0 0.0 0.00 0.00 0.00 90 1010.4
20260510051534 57 155 0.0 0.0 0.00 0.00 0.00 89 1010.4
20260510050029 57 155 0.0 0.0 0.00 0.00 0.00 89 1010.3
20260510044536 57 155 0.0 0.0 0.00 0.00 0.00 89 1010.4
20260510043026 58 155 0.0 0.0 0.00 0.00 0.00 89 1010.3
20260510041524 58 155 0.0 0.0 0.00 0.00 0.00 88 1010.1
20260510040028 59 155 0.0 0.0 0.00 0.00 0.00 88 1010.2
20260510034531 59 155 0.0 0.0 0.00 0.00 0.00 88 1010.1
20260510033022 59 155 0.0 0.0 0.00 0.00 0.00 87 1010.0
20260510031521 60 155 0.0 0.0 0.00 0.00 0.00 87 1009.9
20260510030020 60 155 0.0 0.0 0.00 0.00 0.00 87 1009.8
20260510024520 60 155 0.0 0.0 0.00 0.00 0.00 85 1009.8
20260510023020 60 155 0.0 0.0 0.00 0.00 0.00 82 1009.9
20260510021531 60 155 0.0 0.0 0.00 0.00 0.00 80 1009.9
20260510020019 61 155 0.0 0.0 0.00 0.00 0.00 78 1009.7
20260510014518 61 155 0.0 0.0 0.00 0.00 0.00 76 1009.8
20260510013018 62 155 0.0 0.0 0.00 0.00 0.00 75 1009.7
20260510011517 62 155 0.0 0.0 0.00 0.00 0.00 74 1009.4
20260510010017 63 155 0.0 0.0 0.00 0.00 0.00 72 1009.3
20260510004518 64 155 0.0 0.0 0.00 0.00 0.00 69 1009.1
20260510003016 66 155 0.0 0.0 0.00 0.00 0.00 68 1009.1
20260510001515 67 155 0.0 0.0 0.00 0.00 0.00 65 1008.8
20260510000018 68 155 0.0 0.0 0.00 0.00 0.00 63 1008.9
20260509234514 69 155 0.0 0.0 0.00 0.00 0.00 62 1008.8
20260509233014 70 155 0.0 0.0 0.00 0.00 0.00 60 1008.6
20260509231513 71 155 0.0 0.0 0.00 0.00 0.00 59 1008.6
20260509230013 71 155 0.0 1.0 0.00 0.00 0.00 58 1008.6
20260509224511 72 136 0.0 1.0 0.00 0.00 0.00 56 1008.4
20260509223012 72 192 0.0 1.0 0.00 0.00 0.00 55 1008.5
20260509221510 72 126 0.0 2.0 0.00 0.00 0.00 55 1008.4
20260509220010 72 146 0.0 1.0 0.00 0.00 0.00 56 1008.4
20260509214510 72 190 0.0 1.0 0.00 0.00 0.00 55 1008.5
20260509213010 73 157 0.0 1.0 0.00 0.00 0.00 54 1008.4
20260509211513 73 155 0.0 1.0 0.00 0.00 0.00 54 1008.2
20260509210011 73 124 0.0 1.0 0.00 0.00 0.00 54 1008.4
20260509204507 73 171 0.0 3.0 0.00 0.00 0.00 53 1008.4
20260509203006 74 210 0.0 2.0 0.00 0.00 0.00 54 1008.5
20260509201504 74 184 0.0 1.0 0.00 0.00 0.00 55 1008.4
20260509200002 74 148 0.0 3.0 0.00 0.00 0.00 56 1009.0
20260509194610 74 200 0.0 2.0 0.00 0.00 0.00 61 1009.4
20260509193059 73 190 0.0 4.0 0.00 0.00 0.00 61 1009.7
20260509191603 73 194 0.0 2.0 0.00 0.00 0.00 59 1009.8
20260509190109 75 136 0.0 3.0 0.00 0.00 0.00 60 1009.8
20260509184554 74 113 0.0 2.0 0.00 0.00 0.00 61 1010.1
20260509183049 73 155 0.0 4.0 0.00 0.00 0.00 63 1010.1
20260509181546 72 126 0.0 3.0 0.00 0.00 0.00 65 1010.4
20260509180047 70 114 0.0 4.0 0.00 0.00 0.00 69 1010.4
20260509174543 69 107 0.0 3.0 0.00 0.00 0.00 71 1010.7
20260509173041 69 117 1.0 4.0 0.00 0.00 0.00 72 1010.7
20260509171545 69 123 0.0 4.0 0.00 0.00 0.00 70 1010.8
20260509170141 68 120 1.0 4.0 0.00 0.00 0.00 68 1010.8
20260509164547 69 126 0.0 3.0 0.00 0.00 0.00 70 1010.7
20260509163038 69 123 0.0 4.0 0.00 0.00 0.00 67 1010.8
20260509161537 70 144 0.0 2.0 0.00 0.00 0.00 64 1011.1
20260509160035 70 117 0.0 3.0 0.00 0.00 0.00 60 1011.0
20260509154533 70 125 0.0 5.0 0.00 0.00 0.00 60 1011.0